User: anonymous   Login
Location: Nairn
(57.5833°N, 3.8667°W)
Time: 11:15:49
(UTC+00:00)
Language:

Cosmos 1470 - Orbit

View from above orbital plane
View from above orbital plane
View from above satellite
View from above satellite

Ground track
Ground track

The orbit data is extracted from the following two-line orbital elements,

1 14147U 83061A   20299.94649537 +.00001350 +00000-0 +77817-4 0  9997
2 14147 082.4807 273.4658 0015607 008.8253 351.3249 15.11476731789791
Epoch (UTC): 25 October 2020 22:42:57
Eccentricity: 0.0015607
inclination: 82.4807°
perigee height: 521 km
apogee height: 542 km
right ascension of ascending node: 273.4658°
argument of perigee: 8.8253°
revolutions per day: 15.11476731
mean anomaly at epoch: 351.3249°
orbit number at epoch: 78979

The dashed part of the orbit path shows where the satellite is in the earth's shadow,  

DLR